Date String (YYYY-MM-DD hh:mm:ss) UTC,Instrument flags,absolute air pressure of the measurement (hPa),sample flow rate (lpm),inlet stack bypass flow (lpm),air temperature of the measurement (°C),ambient temperature measured by the external sensor (°C),aerosol sample conditioner tube jacket temperature (°C),OPC LED temperature (°C),internal box temperature (°C),relative humidity of the measurement (%),span deviation,mass concentration of particles derived from Lorenz-Mie calculation of OPC scattering (μg/m³),mass concentration of particles derived from Lorenz-Mie calculation of OPC scattering (μg/m³),mass concentration of particles derived from Lorenz-Mie calculation of OPC scattering (μg/m³)
DateTimeUTC,F1_M11,P_M11,Q1_M11,Q2_M11,T1_M11,T2_M11,T3_M11,T4_M11,T5_M11,U1_M11,ZSPAN_M11,X0_M11,X2_M11,X1_M11
2023-12-15 18:00:00,SystemResetWarning,0836.1,4.99,000.00,021.0,020.4,000.0,029.2,022.4,13.2,0000.0,0004.24,0002.29,0002.06
2023-12-15 18:01:00,SystemResetWarning,0836.1,4.99,000.00,021.1,020.4,000.0,029.2,022.4,13.3,0000.0,0003.01,0002.27,0002.05
2023-12-15 18:02:00,SystemResetWarning,0836.1,5.00,000.00,021.1,020.4,000.0,029.2,022.4,13.0,0000.0,0002.93,0002.29,0002.05
2023-12-15 18:03:00,SystemResetWarning,0836.1,5.00,000.00,021.1,020.4,000.0,029.2,022.4,13.2,0000.0,0002.94,0002.30,0002.04
2023-12-15 18:04:00,SystemResetWarning,0836.0,5.00,000.00,021.1,020.4,000.0,029.2,022.4,13.6,0000.0,0002.91,0002.28,0002.02
2023-12-15 18:05:00,SystemResetWarning,0835.9,5.00,000.00,021.1,020.4,000.0,029.2,022.4,13.9,0000.0,0002.88,0002.25,0002.01
2023-12-15 18:06:00,SystemResetWarning,0836.0,5.00,000.00,021.1,020.4,000.0,029.2,022.4,13.9,0000.0,0002.85,0002.23,0002.00
2023-12-15 18:07:00,SystemResetWarning,0835.9,5.00,000.00,021.1,020.4,000.0,029.3,022.5,13.9,0000.0,0002.84,0002.23,0002.02
2023-12-15 18:08:00,SystemResetWarning,0835.9,5.00,000.00,021.1,020.4,000.0,029.3,022.5,13.5,0000.0,0002.79,0002.21,0002.02
2023-12-15 18:09:00,SystemResetWarning,0835.9,5.00,000.00,021.1,020.4,000.0,029.3,022.5,13.3,0000.0,0002.70,0002.19,0002.02
2023-12-15 18:10:00,SystemResetWarning,0835.9,5.00,000.00,021.1,020.4,000.0,029.3,022.5,13.4,0000.0,0002.67,0002.20,0002.04
2023-12-15 18:11:00,SystemResetWarning,0835.9,5.00,000.00,021.2,020.4,000.0,029.3,022.5,14.2,0000.0,0002.77,0002.25,0002.07
2023-12-15 18:12:00,SystemResetWarning,0835.9,5.00,000.00,021.2,020.5,000.0,029.3,022.5,14.5,0000.0,0002.80,0002.27,0002.08
2023-12-15 18:13:00,SystemResetWarning,0835.9,5.00,000.00,021.2,020.5,000.0,029.3,022.5,14.1,0000.0,0002.75,0002.27,0002.10
2023-12-15 18:14:00,SystemResetWarning,0835.9,5.00,000.00,021.2,020.5,000.0,029.3,022.5,14.2,0000.0,0002.73,0002.28,0002.13
2023-12-15 18:15:00,SystemResetWarning,0835.9,4.99,000.00,021.2,020.5,000.0,029.3,022.6,14.1,0000.0,0002.82,0002.34,0002.16
2023-12-15 18:16:00,SystemResetWarning,0835.9,5.00,000.00,021.2,020.5,000.0,029.3,022.5,13.4,0000.0,0003.04,0002.43,0002.19
2023-12-15 18:17:00,SystemResetWarning,0835.9,5.00,000.00,021.2,020.5,000.0,029.3,022.5,13.5,0000.0,0003.04,0002.44,0002.20
2023-12-15 18:18:00,SystemResetWarning,0835.9,5.00,000.00,021.2,020.5,000.0,029.4,022.5,14.1,0000.0,0003.07,0002.45,0002.20
2023-12-15 18:19:00,SystemResetWarning,0835.9,5.00,000.00,021.2,020.5,000.0,029.4,022.6,14.1,0000.0,0003.15,0002.48,0002.20
2023-12-15 18:20:00,SystemResetWarning,0835.8,5.00,000.00,021.2,020.5,000.0,029.4,022.6,13.9,0000.0,0003.26,0002.53,0002.20
2023-12-15 18:21:00,SystemResetWarning,0835.8,5.00,000.00,021.2,020.5,000.0,029.4,022.6,14.1,0000.0,0003.29,0002.54,0002.21
2023-12-15 18:22:00,SystemResetWarning,0835.8,5.00,000.00,021.3,020.5,000.0,029.4,022.6,14.0,0000.0,0003.51,0002.59,0002.21
2023-12-15 18:23:00,SystemResetWarning,0835.8,5.00,000.00,021.3,020.5,000.0,029.4,022.6,13.3,0000.0,0003.62,0002.60,0002.22
2023-12-15 18:24:00,SystemResetWarning,0835.8,5.00,000.00,021.3,020.6,000.0,029.4,022.6,13.7,0000.0,0003.71,0002.63,0002.23
2023-12-15 18:25:00,SystemResetWarning,0835.8,5.00,000.00,021.3,020.6,000.0,029.4,022.6,13.6,0000.0,0003.82,0002.66,0002.24
2023-12-15 18:26:00,SystemResetWarning,0835.8,5.00,000.00,021.3,020.6,000.0,029.4,022.6,13.8,0000.0,0003.85,0002.66,0002.23
2023-12-15 18:27:00,SystemResetWarning,0835.8,5.00,000.00,021.3,020.6,000.0,029.5,022.7,14.1,0000.0,0003.73,0002.60,0002.21
2023-12-15 18:28:00,SystemResetWarning,0835.8,5.00,000.00,021.3,020.6,000.0,029.5,022.7,14.1,0000.0,0003.66,0002.58,0002.21
2023-12-15 18:29:00,SystemResetWarning,0835.8,5.00,000.00,021.3,020.6,000.0,029.5,022.7,14.3,0000.0,0003.66,0002.57,0002.21
2023-12-15 18:30:00,SystemResetWarning,0835.8,5.00,000.00,021.4,020.7,000.0,029.5,022.7,14.8,0000.0,0003.66,0002.55,0002.21
2023-12-15 18:31:00,SystemResetWarning,0835.8,5.00,000.00,021.4,020.7,000.0,029.5,022.7,14.4,0000.0,0003.57,0002.52,0002.23
2023-12-15 18:32:00,SystemResetWarning,0835.7,4.99,000.00,021.4,020.7,000.0,029.5,022.7,14.5,0000.0,0003.54,0002.50,0002.22
2023-12-15 18:33:00,SystemResetWarning,0835.7,5.00,000.00,021.4,020.8,000.0,029.5,022.8,14.8,0000.0,0003.35,0002.45,0002.22
2023-12-15 18:34:00,SystemResetWarning,0835.7,5.00,000.00,021.4,020.8,000.0,029.6,022.8,14.6,0000.0,0003.15,0002.43,0002.22
2023-12-15 18:35:00,SystemResetWarning,0835.7,5.00,000.00,021.4,020.8,000.0,029.6,022.8,14.4,0000.0,0003.08,0002.42,0002.21
2023-12-15 18:36:00,SystemResetWarning,0835.6,5.00,000.00,021.4,020.8,000.0,029.6,022.8,14.0,0000.0,0003.00,0002.41,0002.21
2023-12-15 18:37:00,SystemResetWarning,0835.6,5.00,000.00,021.5,020.8,000.0,029.6,022.8,13.9,0000.0,0003.16,0002.44,0002.22
2023-12-15 18:38:00,SystemResetWarning,0835.7,5.01,000.00,021.5,020.9,000.0,029.6,022.9,13.6,0000.0,0003.19,0002.45,0002.23
2023-12-15 18:39:00,SystemResetWarning,0835.7,5.00,000.00,021.5,020.9,000.0,029.6,022.9,13.7,0000.0,0003.37,0002.45,0002.23
2023-12-15 18:40:00,SystemResetWarning,0835.6,5.00,000.00,021.5,020.9,000.0,029.6,022.9,14.0,0000.0,0004.30,0002.47,0002.22
2023-12-15 18:41:00,SystemResetWarning,0835.9,5.00,000.00,021.5,020.9,000.0,029.6,022.9,13.9,0000.0,0004.24,0002.47,0002.20
2023-12-15 18:42:00,SystemResetWarning,0835.9,5.00,000.00,021.5,021.0,000.0,029.7,022.9,13.9,0000.0,0004.23,0002.46,0002.18
2023-12-15 18:43:00,SystemResetWarning,0835.8,4.99,000.00,021.6,021.0,000.0,029.7,023.0,13.3,0000.0,0004.23,0002.45,0002.16
2023-12-15 18:44:00,SystemResetWarning,0835.6,5.00,000.00,021.6,021.0,000.0,029.7,023.0,13.5,0000.0,0004.48,0002.43,0002.14
2023-12-15 18:45:00,SystemResetWarning,0835.6,5.00,000.00,021.6,021.1,000.0,029.7,023.0,13.8,0000.0,0005.28,0002.39,0002.11
2023-12-15 18:46:00,SystemResetWarning,0835.6,5.00,000.00,021.6,021.1,000.0,029.7,023.1,14.2,0000.0,0005.25,0002.36,0002.09
2023-12-15 18:47:00,SystemResetWarning,0835.6,5.00,000.00,021.7,021.1,000.0,029.7,023.1,14.0,0000.0,0005.27,0002.35,0002.07
2023-12-15 18:48:00,SystemResetWarning,0835.6,5.00,000.00,021.7,021.1,000.0,029.8,023.1,13.7,0000.0,0005.17,0002.32,0002.06
2023-12-15 18:49:00,SystemResetWarning,0835.6,5.00,000.00,021.7,021.1,000.0,029.8,023.1,13.8,0000.0,0005.05,0002.31,0002.07
2023-12-15 18:50:00,SystemResetWarning,0835.6,5.00,000.00,021.7,021.1,000.0,029.8,023.1,13.8,0000.0,0005.17,0002.33,0002.07
2023-12-15 18:51:00,SystemResetWarning,0835.6,5.00,000.00,021.7,021.2,000.0,029.8,023.2,13.6,0000.0,0004.56,0002.35,0002.09
2023-12-15 18:52:00,SystemResetWarning,0835.6,5.00,000.00,021.8,021.2,000.0,029.8,023.2,13.8,0000.0,0004.54,0002.38,0002.11
2023-12-15 18:53:00,SystemResetWarning,0835.6,5.00,000.00,021.8,021.2,000.0,029.8,023.2,13.7,0000.0,0004.61,0002.42,0002.14
2023-12-15 18:54:00,SystemResetWarning,0835.6,5.00,000.00,021.8,021.2,000.0,029.9,023.2,13.8,0000.0,0004.69,0002.45,0002.16
2023-12-15 18:55:00,SystemResetWarning,0835.5,5.00,000.00,021.8,021.3,000.0,029.9,023.2,14.6,0000.0,0004.66,0002.49,0002.18
2023-12-15 18:56:00,SystemResetWarning,0835.6,5.00,000.00,021.8,021.3,000.0,029.9,023.2,14.2,0000.0,0003.75,0002.52,0002.21
2023-12-15 18:57:00,SystemResetWarning,0835.5,5.00,000.00,021.9,021.3,000.0,029.9,023.3,14.4,0000.0,0003.90,0002.61,0002.25
2023-12-15 18:58:00,SystemResetWarning,0835.5,5.01,000.00,021.9,021.3,000.0,029.9,023.3,14.5,0000.0,0004.91,0002.67,0002.31
2023-12-15 18:59:00,SystemResetWarning,0835.6,5.00,000.00,021.9,021.3,000.0,030.0,023.3,14.4,0000.0,0005.30,0002.72,0002.34
